Simultaneous Nadir Overpasses (SNOs) Predictions

Prediction of SNOs between AQUA and NOAA-19 Satellite Orbit:

Table of predicted SNOs for the next 14.0 days since TLE Epoch: 8/16/2019
Index Date (AQUA) Time (AQUA) Lat,Lon (AQUA) SZA (AQUA ) Date (NOAA-19) Time (NOAA-19) Lat,Lon (NOAA-19) SZA (NOAA-19 ) Distance(km) Time Diff (sec)
1 08/18/2019 04:07:04 -80.29, -94.89 111.21 08/18/2019 04:06:43 -80.30, -94.95 111.19 1.26 21
2 08/18/2019 04:56:32 80.32, 72.51 68.85 08/18/2019 04:57:42 80.41, 74.30 68.73 34.85 70
3 08/20/2019 09:40:49 80.29, 1.67 69.51 08/20/2019 09:40:11 80.31, 1.83 69.52 3.26 38
4 08/20/2019 10:30:15 -80.30, 169.27 110.48 08/20/2019 10:31:06 -80.32, 169.30 110.49 2.07 51
5 08/22/2019 15:14:32 -80.27, 98.44 109.81 08/22/2019 15:13:30 -80.30, 98.45 109.76 2.64 62
6 08/22/2019 16:04:00 80.30, -94.17 70.25 08/22/2019 16:04:35 80.30, -94.22 70.25 1.04 35
7 08/24/2019 21:37:44 -80.31, 2.30 108.99 08/24/2019 21:37:54 -80.29, 2.35 109.02 2.28 10
8 08/27/2019 03:11:28 80.28, 99.15 71.71 08/27/2019 03:11:22 80.30, 99.16 71.73 1.99 6
9 08/29/2019 08:45:12 -80.29,-164.38 107.51 08/29/2019 08:44:41 -80.28,-164.31 107.51 1.34 31




NCC Satellite Simultaneous Nadir Overpasses (SNOs) Prediction Service
